Vertical_Velocity
1 5 -3 -8 -3 -4 -0 1 0 -3 -5 11 -2 -2 -5 -5 1 -1 -3 -3 -5 -5 -13 -1 -2 0 1 0 1 -0 2 1 -2 -3 -2 -4 -3 -1 3 0 -0 -0 1 14
4 -3 -6 -0 1 2 2 2 -5 -4 -1 8 -1 -12 -5 -1 -7 -1 -2 -3 -4 -3 -6 -2 -0 -0 -0 7 2 -0 3 3 -2 0 -1 -3 -1 -1 3 1 1 1 -1 10
-3 -5 1 0 1 4 -0 1 -1 1 -3 -2 4 -8 -2 -3 1 0 -3 -4 -1 -1 -8 -3 -2 -1 0 -0 1 5 5 1 0 1 -1 -0 2 5 2 -1 21 -1 -4 -1
-4 -3 -1 2 -0 2 5 -2 0 1 2 -0 1 -11 -2 -1 -3 0 -3 -2 -4 -2 -1 -1 -2 -3 3 4 1 4 6 -1 1 1 -2 -1 -1 -2 -2 4 7 -3 -1 13
-7 1 1 4 -7 -1 -5 -1 -1 -0 1 3 -1 7 -5 2 -4 -3 -3 -1 -2 -3 0 1 -1 1 3 0 2 3 2 1 -1 0 -2 -2 0 -2 -1 -6 2 -3 8 4
-3 1 -1 -4 0 -2 -1 1 1 1 1 4 -5 3 -6 -0 6 -6 -4 -2 1 2 1 4 1 2 0 -2 2 2 -2 1 0 -1 -1 -1 -1 -0 -0 12 6 15 9 1
2 1 1 -1 -1 0 1 1 2 3 5 -4 -0 8 -13 -3 0 5 3 -2 -2 -1 7 2 2 -1 -1 -1 3 1 -1 0 -1 -1 -1 -2 0 -1 1 5 2 1 -2 4
-2 6 -1 -1 -3 -6 -2 -1 -1 -1 -0 -1 0 -2 -1 1 0 1 2 3 1 -1 -0 6 4 -1 3 1 0 2 2 -1 -2 -2 -2 -0 -0 -3 1 3 7 4 -1 -3
-1 3 1 -0 -0 -3 3 2 -0 1 0 5 -2 -3 7 -1 -2 -2 -1 -3 -4 -2 -1 -4 2 1 2 -1 1 2 5 -0 -1 -2 -2 2 -1 -2 -3 1 2 6 -2 -8
-1 -1 -0 1 -1 1 -1 0 4 1 1 0 -1 -1 -4 -2 -2 -2 -4 0 -3 -4 -1 3 4 2 2 7 6 1 1 2 1 -0 0 -0 0 -0 1 1 0 7 5 7
-1 -6 4 2 1 -4 4 1 1 1 1 2 0 -1 -0 3 3 1 1 2 5 -5 0 -1 1 5 2 2 2 2 4 0 -1 -1 -1 0 1 -1 -1 -1 -2 -0 3 -1
-1 -2 -0 1 1 -2 -1 -1 -2 -0 2 -1 2 -9 0 2 2 1 1 1 6 -9 2 6 2 3 1 4 1 -0 4 -2 1 1 -1 -0 1 -3 -4 -1 2 1 1 1
-3 0 1 5 3 1 -1 1 0 -1 1 -2 4 -4 -1 -3 -3 -1 1 0 2 -10 7 4 3 3 3 0 6 3 4 2 0 1 0 1 1 0 -1 -2 -3 -2 -1 1
-3 -0 -0 -2 0 -2 -0 0 -0 -0 2 -2 -6 -8 -12 -6 -1 -4 -1 1 6 -5 4 10 6 3 2 3 3 1 5 6 0 -1 1 1 1 -0 0 -0 -1 -3 -0 -2
-2 -1 -1 0 -0 0 -1 -0 -1 2 -5 5 -13 2 -7 -1 1 1 2 1 0 -8 -6 -1 6 14 15 11 8 8 5 7 1 -1 0 4 4 3 2 2 1 5 4 5
-1 2 -1 -1 0 -0 0 -1 0 0 -1 1 2 -9 1 -2 -0 1 1 -0 1 -3 0 3 0 10 5 5 4 2 2 6 2 2 4 6 5 4 2 2 1 1 2 2
-1 -1 -0 -1 0 -0 3 0 -0 -1 -0 5 3 -6 -0 -3 -0 2 2 0 2 -3 -0 2 0 3 5 6 2 3 0 -0 2 1 1 1 2 1 0 3 5 5 3 4
-1 -1 -0 -0 1 2 2 -1 1 2 -0 -1 -3 -3 2 0 4 -0 5 4 1 -6 -0 0 4 2 3 7 5 6 5 -0 2 2 1 2 1 1 1 1 1 0 -0 -1
-1 -1 0 2 0 -3 0 2 2 8 -13 3 3 -4 -4 6 -4 1 9 5 -1 -0 -3 3 4 4 5 5 15 -5 -4 2 5 7 -2 3 2 4 1 1 3 3 3 2
-1 -0 2 0 1 0 2 -1 1 3 2 2 4 -0 0 4 -1 5 3 8 6 17 -12 -5 6 7 -0 7 7 -8 6 -2 3 -6 0 5 6 1 1 -0 1 2 5 -1
-0 0 0 -0 0 -4 3 -0 1 2 7 1 3 5 -0 -3 9 12 3 3 3 4 12 2 5 -3 -2 11 13 -12 -9 14 2 -7 2 5 5 -1 -0 0 -1 0 3 2
1 1 -0 1 2 -0 1 -5 -4 6 3 1 0 3 3 3 0 4 2 -2 2 2 0 6 -4 -3 4 4 -2 -4 -12 6 1 -2 -6 -1 2 -4 3 2 -0 0 1 2
3 6 3 7 6 5 6 3 7 2 3 5 -3 1 1 -1 1 2 1 2 4 3 2 5 5 4 -2 -1 -1 4 -5 8 2 -0 0 7 -2 -3 1 3 -0 -2 2 -1
-3 -0 1 2 5 4 3 3 1 2 1 5 1 1 2 -0 1 3 3 1 3 2 -3 1 3 -2 -2 -3 -3 1 -11 6 -3 1 -3 -1 0 2 1 0 -2 -1 -0 -1
4 -1 2 2 3 2 -2 1 3 2 3 3 -1 3 2 2 2 3 2 0 -1 -2 -2 -3 -4 -5 -4 -3 -7 -4 2 -1 -2 1 -5 -0 3 2 -0 -0 -2 2 -2 1
2 3 2 3 3 -4 7 4 2 -3 -0 3 1 3 1 1 1 2 -1 1 1 -0 1 -1 -1 0 0 1 1 -0 2 2 3 -1 2 2 0 -3 -4 -1 -1 -2 0 -2
Height
1450 1452 1446 1447 1448 1450 1453 1455 1456 1454 1451 1448 1439 1422 1430 1430 1427 1423 1423 1422 1419 1418 1418 1417 1418 1418 1418 1419 1422 1428 1433 1437 1442 1446 1449 1453 1454 1458 1460 1462 1466 1470 1473 1477
1448 1442 1444 1446 1449 1451 1451 1452 1453 1452 1446 1446 1438 1415 1419 1418 1414 1414 1412 1407 1408 1409 1409 1409 1410 1411 1411 1412 1415 1421 1427 1432 1437 1441 1444 1448 1450 1453 1455 1458 1460 1464 1468 1473
1438 1437 1437 1442 1447 1450 1449 1449 1452 1452 1447 1441 1437 1412 1406 1406 1405 1401 1399 1398 1399 1398 1399 1400 1402 1403 1404 1405 1408 1414 1421 1427 1433 1437 1439 1443 1446 1449 1451 1452 1451 1455 1461 1466
1434 1433 1437 1440 1442 1445 1446 1443 1445 1449 1449 1444 1437 1421 1404 1404 1398 1394 1394 1391 1390 1390 1390 1391 1393 1394 1395 1399 1404 1410 1418 1423 1429 1432 1434 1437 1441 1443 1445 1446 1446 1448 1454 1457
1428 1431 1436 1436 1435 1440 1440 1441 1443 1446 1447 1445 1440 1442 1405 1399 1391 1390 1390 1385 1383 1382 1383 1382 1384 1387 1389 1393 1398 1406 1414 1420 1425 1427 1430 1434 1437 1439 1441 1442 1442 1445 1450 1454
1425 1429 1431 1431 1432 1435 1438 1440 1442 1443 1443 1443 1428 1430 1404 1397 1397 1393 1389 1384 1381 1379 1379 1377 1377 1380 1385 1390 1395 1402 1410 1416 1420 1423 1427 1432 1434 1436 1438 1439 1439 1440 1446 1454
1427 1428 1430 1431 1433 1438 1439 1441 1439 1443 1444 1431 1424 1430 1404 1399 1403 1400 1393 1388 1382 1378 1375 1373 1373 1376 1380 1384 1390 1398 1406 1411 1416 1421 1425 1430 1433 1435 1437 1438 1439 1441 1447 1452
1422 1431 1428 1427 1428 1431 1436 1436 1430 1431 1431 1427 1422 1415 1399 1401 1401 1398 1393 1387 1384 1379 1374 1372 1373 1373 1377 1380 1387 1394 1401 1408 1413 1419 1424 1428 1431 1433 1436 1438 1439 1441 1446 1452
1420 1424 1425 1425 1426 1428 1434 1436 1433 1435 1431 1428 1413 1400 1399 1397 1395 1390 1386 1381 1380 1376 1374 1370 1371 1371 1374 1377 1383 1392 1399 1405 1411 1417 1423 1426 1429 1432 1435 1437 1441 1442 1447 1454
1413 1422 1424 1425 1426 1429 1427 1432 1437 1439 1434 1428 1406 1403 1395 1397 1396 1391 1385 1381 1377 1375 1366 1362 1364 1367 1372 1379 1383 1390 1398 1404 1409 1416 1421 1425 1429 1431 1434 1437 1440 1444 1448 1450
1408 1410 1426 1423 1425 1425 1430 1433 1436 1434 1431 1421 1416 1399 1396 1400 1397 1393 1388 1385 1377 1376 1372 1365 1366 1368 1373 1377 1383 1389 1396 1403 1408 1415 1420 1424 1428 1431 1434 1437 1440 1444 1448 1453
1409 1412 1417 1421 1423 1424 1423 1425 1427 1431 1427 1429 1424 1406 1397 1400 1397 1395 1392 1388 1383 1376 1374 1371 1369 1370 1373 1376 1381 1390 1396 1402 1407 1414 1418 1423 1427 1430 1434 1438 1441 1444 1448 1452
1408 1414 1416 1425 1425 1424 1424 1432 1436 1436 1439 1427 1424 1402 1396 1397 1396 1395 1393 1391 1386 1379 1378 1373 1370 1372 1374 1379 1383 1389 1396 1401 1407 1412 1417 1422 1426 1429 1432 1437 1441 1444 1448 1451
1407 1414 1413 1411 1419 1426 1430 1427 1427 1429 1431 1420 1419 1410 1400 1398 1397 1395 1395 1393 1390 1385 1381 1377 1376 1376 1379 1383 1386 1391 1396 1400 1405 1411 1416 1420 1423 1427 1431 1435 1439 1443 1446 1449
1409 1414 1419 1422 1423 1425 1425 1424 1423 1426 1421 1424 1408 1411 1400 1401 1398 1397 1397 1395 1392 1388 1389 1386 1381 1381 1383 1386 1389 1393 1396 1399 1405 1411 1416 1419 1422 1426 1430 1433 1436 1440 1443 1447
1419 1423 1425 1423 1424 1424 1424 1419 1418 1419 1418 1416 1413 1405 1402 1399 1397 1397 1397 1395 1395 1395 1396 1393 1389 1385 1383 1384 1388 1391 1396 1400 1405 1410 1414 1417 1420 1423 1427 1430 1434 1437 1440 1443
1425 1426 1429 1427 1426 1423 1421 1419 1415 1412 1412 1411 1409 1401 1403 1399 1401 1401 1401 1399 1397 1399 1400 1395 1392 1389 1388 1387 1388 1392 1396 1399 1403 1407 1411 1415 1417 1420 1423 1427 1430 1433 1436 1439
1427 1428 1431 1428 1429 1424 1413 1413 1413 1413 1411 1410 1409 1406 1402 1401 1404 1406 1406 1403 1400 1401 1402 1399 1396 1394 1391 1390 1390 1390 1394 1401 1405 1407 1410 1413 1415 1417 1420 1423 1426 1429 1431 1434
1426 1429 1431 1430 1425 1418 1412 1414 1414 1412 1409 1418 1414 1405 1400 1401 1401 1409 1410 1406 1404 1400 1406 1403 1401 1397 1395 1392 1391 1389 1397 1402 1406 1403 1409 1412 1413 1415 1417 1420 1423 1425 1427 1429
1427 1428 1428 1433 1426 1424 1415 1417 1415 1413 1408 1421 1416 1403 1381 1388 1395 1413 1412 1413 1410 1406 1405 1408 1406 1401 1398 1398 1397 1396 1394 1401 1402 1407 1412 1413 1412 1413 1416 1418 1421 1422 1423 1425
1431 1431 1429 1429 1427 1419 1426 1419 1411 1411 1425 1426 1420 1413 1396 1401 1406 1414 1415 1414 1412 1411 1407 1411 1406 1404 1405 1404 1403 1400 1404 1407 1407 1413 1415 1414 1413 1414 1417 1418 1419 1421 1422 1423
1425 1427 1426 1424 1424 1424 1429 1419 1422 1428 1429 1427 1425 1421 1415 1413 1416 1417 1416 1415 1416 1413 1415 1409 1408 1413 1410 1407 1411 1412 1413 1416 1417 1418 1419 1419 1417 1418 1418 1419 1420 1421 1422 1424
1431 1439 1437 1432 1431 1439 1438 1437 1437 1432 1431 1429 1428 1428 1426 1422 1422 1422 1422 1422 1421 1421 1419 1418 1414 1412 1413 1414 1416 1416 1418 1423 1422 1423 1424 1421 1421 1422 1422 1421 1420 1423 1424 1424
1444 1444 1439 1440 1445 1444 1443 1442 1439 1438 1435 1433 1433 1433 1431 1429 1430 1428 1427 1426 1425 1423 1421 1422 1420 1417 1418 1420 1423 1423 1429 1428 1427 1427 1425 1425 1425 1424 1423 1422 1424 1426 1426 1427
1453 1449 1446 1441 1444 1445 1447 1446 1444 1442 1440 1437 1437 1437 1436 1434 1433 1434 1433 1432 1431 1431 1431 1430 1430 1431 1431 1432 1432 1435 1433 1431 1431 1430 1428 1431 1428 1427 1427 1427 1428 1428 1428 1429
1457 1455 1449 1448 1450 1449 1453 1451 1449 1446 1444 1442 1441 1439 1439 1438 1438 1438 1437 1438 1438 1439 1440 1440 1439 1440 1439 1439 1438 1439 1438 1436 1434 1433 1433 1431 1431 1432 1433 1434 1433 1433 1433 1433